Location: Peebles
(55.6412°N, 3.1714°W)
Time: 14:36:03
(UTC+01:00)

NOSS 3-2 (A) - Pass Details

Date: 26 September 2021
Orbit: 767 x 1440 km, 63.4° (Epoch: 15 October)

Event Time Altitude Azimuth Distance (km) Brightness Sun altitude
Rises 21:44:48 0° 216° (SW) 3,352 6.4 -22.8°
Reaches altitude 10° 21:47:06 10° 214° (SW) 2,480 5.6 -23.1°
Maximum altitude 21:52:46 67° 133° (SE) 1,020 3.3 -23.7°
Drops below altitude 10° 21:59:28 10° 53° (NE) 2,910 5.8 -24.5°
Sets 22:02:22 0° 51° (NE) 3,977 6.6 -24.8°
